ARIANE 42P DEB, 44509

Orbit data source: Space-Track

ARIANE 42P DEB, 44509 is space debris in LEO originally from a launch on Mon, 10 Aug 1992 UTC launched from the French Guiana (FRGUI). Debris objects in space refer to the collection of defunct objects orbiting the Earth. Examples of debris include non-operational satellites, rocket bodies, and fragments generated from explosions, collisions, or faulty payload assembly.

Loading next visibility...
Identifier
44509, 1992-052G
Orbit
LEO
Country
Flag of FRFR
Related business
Manufacturer
ArianeGroup
Mission
Spacecraft
Bus & Motor
Unknown
Mass
Unknown
Launch date (UTC)
1992-08-10 (33 years ago)
Launch vehicle
Unknown
Launch site
French Guiana (FRGUI)
Object type
Payload
Rocket body
Debris
Shape & HBR
Unknown
Radar Cross Section
Small (<0.1 m²)

Expand to show TLE details & history
Last TLE update: 13 hours ago

TLE from 13 hours ago
0 ARIANE 42P DEB
1 44509U 92052G   25261.05034738  .00003789  00000-0  15710-1 0  9998
2 44509  66.0848 134.6253 0067658  49.7305 310.9602 12.84640280284987
Epoch: 2025-09-18T01:12Z
TLE epoch observation values (Epoch: 2025-09-18T01:12:30.013Z)
Latitude
0.00002°
Longitude
119.28274°
Altitude
1,290.83 km
Speed
7.227 km/s
True Right ascension
08h 58m 30s
True Declination
0° 00' 00"
Sunlit
Object was in daylight at epoch
Visualization orbit readout
Latitude
Unknown
Longitude
Unknown
Altitude
Unknown
Speed
Unknown
Apparent Right ascension
Unknown
Apparent Declination
Unknown
Sunlit
N/A
Visualization observer readout
Local Sidereal Time
06:58:34
Azimuth
Unknown
Elevation
Unknown
Doppler factor
Unknown
Orbital elements
Apogee altitude
1,373.518 km
Perigee altitude
1,269.331 km
Semi-major axis
7,699.562 km
Eccentricity
0.00677
Inclination
66.0848°
RAAN
134.6253°
Arg. of periapsis
49.7305°
True anomaly
310.37146°
Mean anomaly
310.9602°
Eccentric anomaly
310.66616°
Mean motion
3.21251 °/min
Orbital period
112.06 mins
BSTAR
0.01571
Loading maneuver chart data...
Computing Atmospheric mass density...
Loading historical data...
Loading historical data...
Loading historical data...
Loading historical data...
Loading historical data...
Loading historical data...
Loading historical data...

Documentation

Showing up to 5 results
|